Location: Newark
(51.0089°N, 21.5817°E)
Time: 08:25:23
(UTC+00:00)

PCSat - Visible Passes

Search period start: 19 February 2020 00:00
Search period end: 29 February 2020 00:00
Orbit: 785 x 794 km, 67.1° (Epoch: 18 February)

Date Brightness Start Highest point End Pass type
(mag) Time Alt. Az. Time Alt. Az. Time Alt. Az.
19 Feb 12.0 01:21:32 16° NNE 01:21:32 16° NNE 01:24:32 10° NE visible
19 Feb 11.2 03:02:14 13° NNW 03:06:28 31° NE 03:11:16 10° E visible
19 Feb 9.6 04:44:56 10° NW 04:50:22 72° WSW 04:55:45 10° SSE visible
20 Feb 12.3 00:51:23 14° NNE 00:51:23 14° NNE 00:53:02 10° NE visible
20 Feb 11.4 02:32:05 16° NNW 02:35:16 26° NNE 02:39:49 10° E visible
20 Feb 9.6 04:13:54 10° NW 04:19:23 89° ENE 04:24:49 10° SE visible
21 Feb 12.5 00:21:16 11° NNE 00:21:16 11° NNE 00:21:36 10° NE visible
21 Feb 11.6 02:01:59 19° N 02:04:01 23° NNE 02:08:18 10° E visible
21 Feb 9.8 03:42:54 10° NW 03:48:22 71° NE 03:53:46 10° SE visible
22 Feb 11.7 01:31:56 20° N 01:32:45 20° NNE 01:36:45 10° ENE visible
22 Feb 10.1 03:12:39 14° NNW 03:17:19 56° NE 03:22:39 10° SE visible
22 Feb 10.4 04:55:43 10° NW 05:00:28 31° WSW 05:05:11 10° S visible
23 Feb 12.0 01:01:58 18° NNE 01:01:58 18° NNE 01:05:11 10° ENE visible
23 Feb 10.5 02:42:42 20° NNW 02:46:13 46° NE 02:51:26 10° ESE visible
23 Feb 10.0 04:24:32 10° NW 04:29:37 41° WSW 04:34:39 10° S visible
24 Feb 12.3 00:32:07 14° NE 00:32:07 14° NE 00:33:36 10° NE visible
24 Feb 10.9 02:12:51 26° N 02:15:05 37° NE 02:20:07 10° ESE visible
24 Feb 9.7 03:53:34 11° NW 03:58:43 54° WSW 04:03:58 10° SSE visible
24 Feb 11.3 18:39:33 10° SSW 18:41:07 19° S 18:41:07 19° S visible
25 Feb 11.1 01:43:10 30° NNE 01:43:55 31° NE 01:48:45 10° E visible
25 Feb 9.5 03:23:54 19° NW 03:27:47 70° WSW 03:33:09 10° SSE visible
25 Feb 10.2 18:08:56 10° S 18:12:56 35° SE 18:12:56 35° SE visible
25 Feb 11.6 19:51:56 10° WSW 19:53:46 21° WSW 19:53:46 21° WSW visible
26 Feb 11.5 01:13:41 25° NE 01:13:41 25° NE 01:17:18 10° E visible
26 Feb 9.4 02:54:27 35° NW 02:56:49 89° SW 03:02:14 10° SE visible
26 Feb 11.0 04:35:58 10° WNW 04:39:27 18° WSW 04:42:57 10° SSW visible
26 Feb 10.4 17:38:27 10° S 17:43:02 29° ESE 17:44:40 24° E visible
26 Feb 10.1 19:20:44 10° SW 19:25:29 57° W 19:25:29 57° W visible
27 Feb 12.1 00:44:28 15° ENE 00:44:28 15° ENE 00:45:48 10° E visible
27 Feb 9.7 02:25:15 67° N 02:25:48 73° NE 02:31:13 10° SE visible
27 Feb 10.6 04:06:03 16° WNW 04:08:41 23° WSW 04:12:52 10° SSW visible
27 Feb 10.7 17:08:09 10° SSE 17:12:13 22° ESE 17:16:11 10° ENE visible
27 Feb 9.6 18:49:38 10° SW 18:55:04 77° NW 18:57:01 41° NNE visible
27 Feb 11.8 20:34:57 10° W 20:37:49 21° NW 20:37:49 21° NW visible
28 Feb 10.6 01:56:22 41° ESE 01:56:22 41° ESE 02:00:06 10° SE visible
28 Feb 10.3 03:37:11 29° W 03:37:53 30° WSW 03:42:32 10° S visible
28 Feb 9.4 18:18:38 10° SSW 18:24:03 85° SE 18:28:15 18° NE visible
28 Feb 11.4 20:03:28 10° W 20:08:06 28° NNW 20:09:02 26° NNW visible
